Regional Weather Roundup
Issued by NWS

Home | Current Version | Previous Version | Text Only | Print | Product List | Glossary On
Versions: 1 2 3 4 5 6 7 8 9 10 11 12 13 14 15 16 17 18 19 20 21 22 23 24 25 26 27 28 29 30 31 32 33 34 35 36 37 38 39 40 41 42 43 44 45 46 47 48 49 50
000
ASUS43 KLOT 190421
RWRIL

ILLINOIS REGIONAL WEATHER ROUNDUP
NATIONAL WEATHER SERVICE CHICAGO/ROMEOVILLE IL
1100 PM CDT SAT APR 18 2015

NOTE: "FAIR" INDICATES FEW OR NO CLOUDS BELOW 12,000 FEET WITH NO
SIGNIFICANT WEATHER AND/OR OBSTRUCTIONS TO VISIBILITY.

* THESE STATIONS ARE NOT UNDER NWS QUALITY CONTROL. THEY ALSO MAY NOT
  REPORT WEATHER SUCH AS PRECIPITATION OR FOG.

ILZ001-002-007-009-015-016-024-190500-
NORTHWEST ILLINOIS

CITY           SKY/WX    TMP DP  RH WIND       PRES   REMARKS
MOLINE         MOCLDY    60  45  57 E12       29.89F
STERLING*      PTCLDY    55  34  44 E10       29.93F
SAVANNA*       CLOUDY    58  33  38 E7G17     29.94R
$$

ILZ003-004-008-010-011-017-018-190500-
NORTH CENTRAL ILLINOIS

CITY           SKY/WX    TMP DP  RH WIND       PRES   REMARKS
ROCKFORD       MOCLDY    53  31  42 E15       29.97F
FREEPORT*      MOCLDY    51  34  52 E8        29.97F
ROCHELLE*      MOCLDY    53  34  47 NE14      29.95F
DE KALB*       MOCLDY    51  32  49 NE12      29.97F
PERU*          MOCLDY    55  35  46 E17       29.93F
$$

ILZ005-006-012>014-019>023-190500-
NORTHEAST ILLINOIS

CITY           SKY/WX    TMP DP  RH WIND       PRES   REMARKS
CHICAGO-OHARE  CLOUDY    49  34  56 NE8       29.99F
CHICAGO-MIDWAY CLOUDY    52  37  56 NE3       29.99F
AURORA         MOCLDY    53  33  46 E13       29.96F
LANSING*       CLOUDY    48  37  66 E6        29.99F
JOLIET*        MOCLDY    53  38  55 E8        29.97F
WAUKEGAN       PTCLDY    48  32  53 NE10      30.01F
DUPAGE AIRPORT MOCLDY    51  34  52 NE10      29.98F
KANKAKEE*      MOCLDY    48  39  69 NE8       29.97F
WHEELING       PTCLDY    49  33  54 NE6       30.00F
MORRIS*        MOCLDY    52  36  54 E7        29.94F
ROMEOVILLE*    MOCLDY    51  36  56 E12       29.97F
NORTHERLY ISL    N/A     48  38  68 N7          N/A
$$

LMZ740>746-190500-
SOUTHERN LAKE MICHIGAN

STATION/POSITION SKY/WX   TEMP    WIND        PRES    VSBY  WAVE
                          AIR SEA DIR/SP/G                  HT/PER
                          (F)     (DEG/KT/KT) (MB)    (MI)  (FT/S)
HARRISON CRIB              45     360/  7/  8   N/A
BURNHAM HARBOR             49     360/  6/ 10   N/A
CALUMET HARBOR             46     350/  5/ 10   N/A
BURNS HARBOR               43      CALM  /  2 1017.3S
MICHIGAN CITY                      80/ 13/ 18   N/A
MICHIGAN CITY 6N           46 46  120/  4/  6   N/A           3/ 6
$$

ILZ025>027-034>036-040-047-049-050-058-095>099-190500-
WEST-CENTRAL ILLINOIS

CITY           SKY/WX    TMP DP  RH WIND       PRES   REMARKS
QUINCY         CLOUDY    63  57  81 W5        29.86F
GALESBURG*     MOCLDY    65  49  55 E7        29.89S
MACOMB*        MOCLDY    60  50  69 E5        29.88F
JACKSONVILLE*  CLOUDY    70  52  52 E9        29.87F
PITTSFIELD*    MOCLDY    68  56  64 E6        29.87F
$$

ILZ028>032-037-038-041>044-048-051>054-059>061-190500-
CENTRAL ILLINOIS

CITY           SKY/WX    TMP DP  RH WIND       PRES   REMARKS
PONTIAC        MOCLDY    54  39  58 E10       29.94F
BLOOMINGTON    MOCLDY    59  49  69 E10       29.93F
DECATUR        MOCLDY    59  48  67 E5        29.90F
PEORIA         PTCLDY    65  50  58 E9        29.90F
LACON*         MOCLDY    56  37  49 E15       29.92F
LINCOLN*       MOCLDY    62  46  55 E6        29.88F
SPRINGFIELD    MOCLDY    66  50  56 E7        29.88F
TAYLORVILLE    MOCLDY    64  48  55 E6        29.88F
$$

ILZ033-039-045-046-055>057-062-063-190500-
EAST-CENTRAL ILLINOIS

CITY           SKY/WX    TMP DP  RH WIND       PRES   REMARKS
CHAMPAIGN      MOCLDY    61  48  62 E8        29.92F
DANVILLE*      MOCLDY    60  51  73 NE6       29.91F
RANTOUL*       CLOUDY    62  51  66 NE9       29.93F
MATTOON        MOCLDY    66  45  46 E8        29.89F
PARIS*         MOCLDY    63  51  64 E6        29.92F
$$

ILZ079-100>102-190500-
SOUTHWEST ILLINOIS

CITY           SKY/WX    TMP DP  RH WIND       PRES   REMARKS
ALTON          MOCLDY    65  55  70 E6        29.86F
BELLEVILLE     CLOUDY    69  58  68 E5        29.83F
CAHOKIA*       MOCLDY    68  56  65 E6        29.84F
SPARTA*        CLOUDY    66  57  71 CALM      29.86F
$$

ILZ064>066-069>071-074>076-080>082-084>086-088>090-092>094-190500-
SOUTH-CENTRAL ILLINOIS

CITY           SKY/WX    TMP DP  RH WIND       PRES   REMARKS
CARBONDALE     CLOUDY    67  57  70 E5        29.84F
CAIRO*         MOCLDY    67  62  83 NE5       29.82F
EFFINGHAM*     CLOUDY    66  46  49 NE3       29.90F
MARION         CLOUDY    66  59  77 CALM      29.85F
MT. VERNON     MOCLDY    64  52  63 NE7       29.86F
CENTRALIA*     MOCLDY    64  54  68 E5        29.87F
SALEM*         MOCLDY    71  51  49 E3        29.88F
METROPOLIS*    MOCLDY    66  59  80 CALM      29.83F
$$

ILZ067-068-072-073-078-083-087-091-190500-
SOUTHEAST ILLINOIS

CITY           SKY/WX    TMP DP  RH WIND       PRES   REMARKS
LAWRENCEVILLE  MOCLDY    64  48  56 E7        29.89F
FLORA*         MOCLDY    65  51  59 E5        29.88F
FAIRFIELD*     MOCLDY    68  51  55 E7        29.86F
HARRISBURG*    MOCLDY    67  57  70 NE3       29.86F
ROBINSON*      CLOUDY    60  53  78 CALM      29.91F
CARMI*         MOCLDY    64  50  61 NE7       29.86F
$$

ABBREVIATIONS USED IN REMARKS
   TC - TEMPERATURE IN CELSIUS
  WCI - WIND CHILL INDEX
   HX - HEAT INDEX
  VSB - VISIBILITY
$$



USA.gov is the U.S. government's official web portal to all federal, state and local government web resources and services.